Logansport, IN

3:22 AM EDT on March 26, 2017 (GMT -0400)
Logansport Municipal

Weather History for KGGP - February, 2014

Change the Weather History Date:

Thursday, February 6, 2014

  Actual Average Record
Temperature  
Mean Temperature 5 °F -  
Max Temperature 19 °F 38 °F 53 °F (2017)
Min Temperature -9 °F 24 °F -9 °F (2014)
Degree Days  
Heating Degree Days 60    
Moisture  
Dew Point -3 °F    
Average Humidity 76    
Maximum Humidity 86    
Minimum Humidity 66    
Precipitation  
Precipitation 0.00 in - - ()
Sea Level Pressure  
Sea Level Pressure 30.43 in    
Wind  
Wind Speed 8 mph (WSW)    
Max Wind Speed 17 mph    
Max Gust Speed 20 mph    
Visibility 8 miles    
Events Snow    
Averages and records for this station are not official NWS values.
T = Trace of Precipitation, MM = Missing Value Source: NWS Daily Summary

Daily Weather History Graph

Daily Weather History Graph

Search for Another Location

Airport or City:

Trip Planner

Search our weather history database for the weather conditions in past years. The results will help you decide how hot, cold, wet, or windy it might be!

Date:

Astronomy

Feb. 06, 2014 Rise Set
Actual Time 7:50 AM EST 6:09 PM EST
Civil Twilight 7:21 AM EST 6:38 PM EST
Nautical Twilight 6:49 AM EST 7:10 PM EST
Astronomical Twilight 6:17 AM EST 7:42 PM EST
Moon 11:40 AM EST (2/6) 1:05 AM EST (2/6)
Length of Visible Light 11h 16m
Length of Day
10h 19m
Waxing Crescent, 49% of the Moon is Illuminated
Feb 6
Waxing Crescent
Feb 6
First Quarter
Feb 14
Full
Feb 22
Last Quarter
Mar 1
New

Hourly Weather History & Observations

Time (EST) Temp. Windchill Dew Point Humidity Pressure Visibility Wind Dir Wind Speed Gust Speed Precip Events Conditions
12:15 AM 19.4 °F 14.3 °F 15.8 °F 86% 30.41 in 4.0 mi WNW 3.5 mph - N/A Snow Light Snow
12:35 AM 19.4 °F 11.5 °F 15.8 °F 86% 30.40 in 10.0 mi WNW 5.8 mph - N/A Snow Light Snow
12:55 AM 17.6 °F 9.3 °F 12.2 °F 79% 30.41 in 10.0 mi NW 5.8 mph - N/A   Mostly Cloudy
1:15 AM 15.8 °F 8.6 °F 10.4 °F 79% 30.41 in 10.0 mi WNW 4.6 mph - N/A   Scattered Clouds
1:35 AM 15.8 °F 8.6 °F 12.2 °F 86% 30.41 in 10.0 mi WNW 4.6 mph - N/A   Mostly Cloudy
1:55 AM 15.8 °F 10.2 °F 12.2 °F 86% 30.41 in 7.0 mi WNW 3.5 mph - N/A Snow Light Snow
2:15 AM 15.8 °F 10.2 °F 12.2 °F 86% 30.40 in 7.0 mi NW 3.5 mph - N/A Snow Light Snow
2:35 AM 14.0 °F 5.1 °F 10.4 °F 86% 30.41 in 10.0 mi West 5.8 mph - N/A Snow Light Snow
2:55 AM 14.0 °F 6.5 °F 8.6 °F 79% 30.41 in 10.0 mi WNW 4.6 mph - N/A Snow Light Snow
3:15 AM 10.4 °F 0.8 °F 5.0 °F 79% 30.41 in 10.0 mi West 5.8 mph - N/A Snow Light Snow
3:35 AM 10.4 °F 2.2 °F 6.8 °F 85% 30.40 in 10.0 mi West 4.6 mph - N/A   Scattered Clouds
3:55 AM 6.8 °F -0.1 °F 3.2 °F 85% 30.40 in 10.0 mi West 3.5 mph - N/A   Scattered Clouds
4:15 AM 5.0 °F -4.1 °F 1.4 °F 85% 30.40 in 10.0 mi West 4.6 mph - N/A   Clear
4:35 AM 3.2 °F -11.3 °F -0.4 °F 85% 30.40 in 10.0 mi West 9.2 mph - N/A   Clear
4:55 AM 1.4 °F -9.9 °F -2.2 °F 85% 30.40 in 10.0 mi West 5.8 mph - N/A   Clear
5:15 AM 1.4 °F -12.5 °F -4.0 °F 78% 30.41 in 7.0 mi West 8.1 mph - N/A   Clear
5:35 AM -0.4 °F -13.4 °F -4.0 °F 85% 30.41 in 5.0 mi West 6.9 mph - N/A Snow Light Snow
5:55 AM 3.2 °F -9.1 °F -0.4 °F 85% 30.43 in 4.0 mi West 6.9 mph - N/A Snow Light Snow
6:15 AM 1.4 °F -9.9 °F -2.2 °F 85% 30.43 in 2.5 mi West 5.8 mph - N/A Snow Light Snow
6:35 AM 3.2 °F -11.3 °F -0.4 °F 85% 30.41 in 5.0 mi WSW 9.2 mph - N/A Snow Light Snow
6:55 AM 3.2 °F -11.3 °F -0.4 °F 85% 30.41 in 7.0 mi West 9.2 mph - N/A Snow Light Snow
7:15 AM -0.4 °F -13.4 °F -5.8 °F 78% 30.41 in 7.0 mi West 6.9 mph - N/A Snow Light Snow
7:35 AM 1.4 °F -14.5 °F -4.0 °F 78% 30.41 in 10.0 mi WSW 10.4 mph - N/A Snow Light Snow
7:55 AM 1.4 °F -13.5 °F -4.0 °F 78% 30.42 in 10.0 mi WSW 9.2 mph - N/A Snow Light Snow
8:15 AM -2.2 °F -18.0 °F -7.6 °F 78% 30.42 in 10.0 mi WSW 9.2 mph - N/A   Scattered Clouds
8:35 AM -0.4 °F -14.7 °F -5.8 °F 78% 30.43 in 10.0 mi WSW 8.1 mph - N/A   Scattered Clouds
8:55 AM 1.4 °F -11.3 °F -4.0 °F 78% 30.44 in 10.0 mi WSW 6.9 mph - N/A   Mostly Cloudy
9:15 AM 1.4 °F -15.3 °F -2.2 °F 85% 30.46 in 5.0 mi WSW 11.5 mph - N/A Snow Light Snow
9:35 AM 3.2 °F -14.6 °F -0.4 °F 85% 30.46 in 4.0 mi WSW 13.8 mph - N/A Snow Light Snow
9:55 AM 3.2 °F -14.6 °F -0.4 °F 85% 30.46 in 4.0 mi WSW 13.8 mph - N/A Snow Light Snow
10:15 AM 3.2 °F -14.6 °F -0.4 °F 85% 30.46 in 4.0 mi WSW 13.8 mph - N/A Snow Light Snow
10:35 AM 3.2 °F -13.9 °F -2.2 °F 78% 30.46 in 7.0 mi WSW 12.7 mph - N/A Snow Light Snow
10:55 AM 3.2 °F -13.9 °F -2.2 °F 78% 30.46 in 7.0 mi WSW 12.7 mph 18.4 mph N/A Snow Light Snow
11:15 AM 3.2 °F -14.6 °F -2.2 °F 78% 30.47 in 10.0 mi WSW 13.8 mph - N/A   Scattered Clouds
11:35 AM 5.0 °F -13.0 °F -4.0 °F 66% 30.47 in 10.0 mi WSW 15.0 mph - N/A   Clear
11:55 AM 5.0 °F -10.8 °F -4.0 °F 66% 30.47 in 10.0 mi WSW 11.5 mph - N/A   Clear
12:15 PM 5.0 °F -13.0 °F -4.0 °F 66% 30.47 in 10.0 mi West 15.0 mph 18.4 mph N/A   Clear
12:35 PM 5.0 °F -11.6 °F -4.0 °F 66% 30.47 in 10.0 mi West 12.7 mph - N/A   Clear
12:55 PM 5.0 °F -13.0 °F -4.0 °F 66% 30.46 in 10.0 mi West 15.0 mph - N/A   Clear
1:15 PM 3.2 °F -15.9 °F -4.0 °F 72% 30.45 in 10.0 mi WSW 16.1 mph - N/A   Clear
1:35 PM 3.2 °F -16.5 °F -4.0 °F 72% 30.44 in 10.0 mi WSW 17.3 mph - N/A   Clear
1:55 PM 3.2 °F -15.3 °F -4.0 °F 72% 30.44 in 10.0 mi WSW 15.0 mph - N/A   Clear
2:15 PM 3.2 °F -15.9 °F -5.8 °F 66% 30.44 in 10.0 mi WSW 16.1 mph - N/A   Clear
2:35 PM 3.2 °F -15.3 °F -5.8 °F 66% 30.43 in 10.0 mi West 15.0 mph - N/A   Clear
2:55 PM 3.2 °F -15.9 °F -5.8 °F 66% 30.43 in 10.0 mi WSW 16.1 mph - N/A   Clear
3:15 PM 3.2 °F -15.9 °F -5.8 °F 66% 30.42 in 10.0 mi West 16.1 mph - N/A   Clear
3:35 PM 3.2 °F -14.6 °F -5.8 °F 66% 30.41 in 10.0 mi West 13.8 mph 18.4 mph N/A   Clear
3:55 PM 3.2 °F -13.9 °F -5.8 °F 66% 30.41 in 0.2 mi West 12.7 mph - N/A Snow Snow
4:15 PM 3.2 °F -14.6 °F -5.8 °F 66% 30.41 in 0.8 mi West 13.8 mph - N/A Snow Light Snow
4:35 PM 3.2 °F -15.3 °F -5.8 °F 66% 30.41 in 2.0 mi West 15.0 mph 19.6 mph N/A Snow Light Snow
4:55 PM 1.4 °F -16.1 °F -5.8 °F 72% 30.41 in 0.8 mi West 12.7 mph - N/A Snow Light Snow
5:15 PM 1.4 °F -14.5 °F -7.6 °F 66% 30.41 in 10.0 mi WSW 10.4 mph - N/A   Clear
5:35 PM 1.4 °F -18.2 °F -5.8 °F 72% 30.41 in 10.0 mi WSW 16.1 mph - N/A   Clear
5:55 PM -0.4 °F -18.4 °F -7.6 °F 72% 30.41 in 10.0 mi WSW 12.7 mph - N/A   Clear
6:15 PM -0.4 °F -18.4 °F -7.6 °F 72% 30.41 in 10.0 mi WSW 12.7 mph - N/A   Clear
6:35 PM -0.4 °F -18.4 °F -7.6 °F 72% 30.41 in 10.0 mi WSW 12.7 mph - N/A   Clear
6:55 PM -2.2 °F -21.5 °F -9.4 °F 71% 30.43 in 10.0 mi WSW 13.8 mph - N/A   Clear
7:15 PM -4.0 °F -21.2 °F -9.4 °F 78% 30.43 in 10.0 mi WSW 10.4 mph - N/A   Clear
7:35 PM -4.0 °F -22.1 °F -9.4 °F 78% 30.43 in 10.0 mi WSW 11.5 mph - N/A   Clear
7:55 PM -4.0 °F -21.2 °F -9.4 °F 78% 30.43 in 10.0 mi WSW 10.4 mph - N/A   Clear
8:15 PM -4.0 °F -22.1 °F -9.4 °F 78% 30.43 in 10.0 mi WSW 11.5 mph - N/A   Clear
8:35 PM -4.0 °F -20.2 °F -11.2 °F 71% 30.44 in 10.0 mi WSW 9.2 mph - N/A   Clear
8:55 PM -5.8 °F -22.4 °F -13.0 °F 71% 30.43 in 10.0 mi WSW 9.2 mph - N/A   Clear
9:15 PM -4.0 °F -20.2 °F -11.2 °F 71% 30.43 in 10.0 mi WSW 9.2 mph - N/A   Clear
9:35 PM -5.8 °F -23.4 °F -13.0 °F 71% 30.44 in 10.0 mi WSW 10.4 mph - N/A   Clear
9:55 PM -7.6 °F -23.4 °F -14.8 °F 71% 30.44 in 10.0 mi SW 8.1 mph - N/A   Clear
10:15 PM -5.8 °F -18.4 °F -13.0 °F 71% 30.43 in 10.0 mi WSW 5.8 mph - N/A   Clear
10:35 PM -9.4 °F -25.6 °F -14.8 °F 77% 30.43 in 10.0 mi SW 8.1 mph - N/A   Clear
10:55 PM -7.6 °F -22.1 °F -13.0 °F 77% 30.43 in 10.0 mi WSW 6.9 mph - N/A   Clear
11:15 PM -7.6 °F -23.4 °F -14.8 °F 71% 30.43 in 10.0 mi SW 8.1 mph - N/A   Clear
11:35 PM -5.8 °F -21.2 °F -13.0 °F 71% 30.42 in 10.0 mi WSW 8.1 mph - N/A   Scattered Clouds
11:55 PM -5.8 °F -19.9 °F -13.0 °F 71% 30.43 in 10.0 mi WSW 6.9 mph - N/A   Scattered Clouds